< < Back
Terminal Aerodrome Forecast


Current Version              Previous Versions:   1  2  3  4  5  6  7  8  9  

Terminal Aerodrome Forecast

994
FTUS42 KTAE 202300
TAFTLH
TAF
KTLH 202336Z 2100/2124 17003KT P6SM FEW045 BKN250
     FM210300 00000KT P6SM BKN250
     FM211800 34005KT P6SM SCT050 SCT250=

Latest METAR

434
SAUS80 KWBC 210100 RRB
MTRTLH
METAR KTLH 210053Z 00000KT 10SM SCT250 22/18 A2998 RMK AO2 SLP151
T02220178


USA.gov is the U.S. government's official web portal to all federal, state and local government web resources and services.